4XHSC LLRS-LLRS

Flight info

Callsign 4XHSC
Flight time N/A
Altitude 400
Route LSA ROUTES
Aircraft EV97/L-V/N

Departure

Time 2026-04-27 15:45
Airport Rishon Lezion Airfield (LLRS)

Arrival

Time N/A
Airport Rishon Lezion Airfield (LLRS)
Time Latitude Longitude Altitude Speed Heading
2026-04-27 15:20 31.96925 34.75320 66 ft 0 kts 87°
2026-04-27 15:24 31.96933 34.75222 68 ft 0 kts 95°
2026-04-27 15:24 31.96908 34.75344 70 ft 6 kts 173°
2026-04-27 15:25 31.96861 34.75333 70 ft 8 kts 178°
2026-04-27 15:25 31.96793 34.75334 65 ft 11 kts 180°
2026-04-27 15:25 31.96707 34.75334 65 ft 14 kts 184°
2026-04-27 15:25 31.96605 34.75333 66 ft 16 kts 180°
2026-04-27 15:26 31.96529 34.75335 66 ft 17 kts 181°
2026-04-27 15:26 31.96404 34.75336 70 ft 19 kts 184°
2026-04-27 15:26 31.96347 34.75337 66 ft 0 kts 143°
2026-04-27 15:27 31.96346 34.75338 66 ft 1 kts 142°
2026-04-27 15:27 31.96339 34.75358 70 ft 2 kts 13°
2026-04-27 15:27 31.96448 34.75358 69 ft 38 kts 358°
2026-04-27 15:27 31.96818 34.75323 130 ft 61 kts 328°
2026-04-27 15:28 31.97101 34.74924 272 ft 66 kts 311°
2026-04-27 15:28 31.97438 34.74515 344 ft 75 kts 317°
2026-04-27 15:28 31.97838 34.74117 372 ft 78 kts 324°
2026-04-27 15:28 31.98312 34.73769 369 ft 82 kts 331°
2026-04-27 15:29 31.98824 34.73459 379 ft 84 kts 333°
2026-04-27 15:29 31.99343 34.73140 402 ft 84 kts 330°
2026-04-27 15:29 31.99861 34.72839 409 ft 86 kts 347°
2026-04-27 15:29 32.00452 34.72912 396 ft 86 kts
2026-04-27 15:30 32.01019 34.73089 387 ft 84 kts
2026-04-27 15:30 32.01579 34.73267 391 ft 83 kts
2026-04-27 15:30 32.02132 34.73439 409 ft 83 kts
2026-04-27 15:30 32.02691 34.73613 437 ft 83 kts 12°
2026-04-27 15:31 32.03252 34.73834 451 ft 87 kts 13°
2026-04-27 15:31 32.03844 34.74048 440 ft 90 kts
2026-04-27 15:31 32.04469 34.74240 433 ft 93 kts
2026-04-27 15:31 32.05080 34.74442 428 ft 91 kts 11°
2026-04-27 15:32 32.05675 34.74717 411 ft 92 kts 19°
2026-04-27 15:32 32.06263 34.75027 418 ft 93 kts 20°
2026-04-27 15:32 32.06836 34.75351 444 ft 91 kts 20°
2026-04-27 15:32 32.07416 34.75663 429 ft 93 kts 19°
2026-04-27 15:33 32.08008 34.75952 404 ft 91 kts 16°
2026-04-27 15:33 32.08593 34.76214 401 ft 89 kts 14°
2026-04-27 15:33 32.09181 34.76431 426 ft 90 kts 12°
2026-04-27 15:33 32.09794 34.76648 413 ft 93 kts
2026-04-27 15:34 32.10409 34.76869 428 ft 91 kts 13°
2026-04-27 15:34 32.10996 34.77142 409 ft 90 kts 16°
2026-04-27 15:34 32.11585 34.77400 418 ft 90 kts 14°
2026-04-27 15:34 32.12190 34.77615 421 ft 91 kts 11°
2026-04-27 15:35 32.12797 34.77819 424 ft 90 kts 11°
2026-04-27 15:35 32.13395 34.78045 400 ft 90 kts 10°
2026-04-27 15:35 32.13988 34.78285 404 ft 90 kts 12°
2026-04-27 15:35 32.14535 34.78555 397 ft 91 kts 17°
2026-04-27 15:36 32.15125 34.78760 411 ft 87 kts
2026-04-27 15:36 32.15708 34.78950 413 ft 87 kts 10°
2026-04-27 15:36 32.16286 34.79154 407 ft 87 kts 11°
2026-04-27 15:36 32.16869 34.79357 400 ft 88 kts 11°
2026-04-27 15:37 32.17460 34.79566 399 ft 88 kts 14°
2026-04-27 15:37 32.18035 34.79817 412 ft 87 kts 17°
2026-04-27 15:37 32.18605 34.80056 398 ft 86 kts 13°
2026-04-27 15:37 32.19168 34.80276 390 ft 84 kts 14°
2026-04-27 15:38 32.19716 34.80499 385 ft 82 kts 17°
2026-04-27 15:38 32.20258 34.80730 397 ft 85 kts 18°
2026-04-27 15:38 32.20813 34.80975 401 ft 84 kts 19°
2026-04-27 15:38 32.21339 34.81298 396 ft 87 kts 34°
2026-04-27 15:39 32.21596 34.81959 427 ft 96 kts 76°
2026-04-27 15:39 32.21670 34.82768 494 ft 98 kts 81°
2026-04-27 15:39 32.21654 34.83572 485 ft 97 kts 91°
2026-04-27 15:39 32.21577 34.84358 454 ft 96 kts 92°
2026-04-27 15:40 32.21486 34.85141 476 ft 94 kts 93°
2026-04-27 15:40 32.21395 34.85839 512 ft 94 kts 100°
2026-04-27 15:40 32.21162 34.86583 520 ft 100 kts 109°
2026-04-27 15:40 32.21116 34.87365 524 ft 93 kts 78°
2026-04-27 15:41 32.21277 34.88107 513 ft 96 kts 59°
2026-04-27 15:41 32.21487 34.88856 532 ft 97 kts 75°
2026-04-27 15:41 32.21612 34.89659 536 ft 100 kts 74°
2026-04-27 15:41 32.21663 34.90478 523 ft 103 kts 96°
2026-04-27 15:42 32.21545 34.91315 526 ft 102 kts 95°
2026-04-27 15:42 32.21452 34.92143 533 ft 103 kts 94°
2026-04-27 15:42 32.21331 34.93001 535 ft 106 kts 97°
2026-04-27 15:42 32.21169 34.93862 529 ft 108 kts 101°
2026-04-27 15:43 32.21009 34.94695 525 ft 104 kts 98°
2026-04-27 15:43 32.20853 34.95512 520 ft 102 kts 108°
2026-04-27 15:43 32.20257 34.95866 513 ft 106 kts 198°
2026-04-27 15:43 32.19547 34.95645 495 ft 105 kts 191°
2026-04-27 15:44 32.18824 34.95678 496 ft 104 kts 169°
2026-04-27 15:44 32.18109 34.95834 478 ft 105 kts 176°
2026-04-27 15:44 32.17392 34.95956 491 ft 104 kts 180°
2026-04-27 15:44 32.16662 34.96059 486 ft 106 kts 174°
2026-04-27 15:45 32.15961 34.96360 515 ft 110 kts 151°
2026-04-27 15:45 32.15343 34.96861 670 ft 102 kts 146°
2026-04-27 15:45 32.14775 34.97341 870 ft 101 kts 146°
2026-04-27 15:45 32.14170 34.97819 906 ft 107 kts 153°
2026-04-27 15:46 32.13505 34.98233 922 ft 110 kts 156°
2026-04-27 15:46 32.12826 34.98618 931 ft 110 kts 161°
2026-04-27 15:46 32.12111 34.98943 939 ft 111 kts 164°
2026-04-27 15:46 32.11377 34.99241 949 ft 112 kts 167°
2026-04-27 15:47 32.10610 34.99454 936 ft 113 kts 168°
2026-04-27 15:47 32.09863 34.99722 919 ft 111 kts 170°
2026-04-27 15:47 32.09138 34.99941 938 ft 106 kts 170°
2026-04-27 15:47 32.08414 35.00114 956 ft 107 kts 171°
2026-04-27 15:48 32.07679 35.00324 964 ft 110 kts 168°
2026-04-27 15:48 32.06928 35.00552 950 ft 112 kts 169°
2026-04-27 15:48 32.06177 35.00736 970 ft 109 kts 173°
2026-04-27 15:49 32.04669 35.01035 924 ft 109 kts 175°
2026-04-27 15:49 32.03919 35.01157 917 ft 109 kts 180°
2026-04-27 15:49 32.03189 35.01327 893 ft 107 kts 169°
2026-04-27 15:49 32.02561 35.01729 917 ft 103 kts 154°
2026-04-27 15:50 32.01890 35.01985 909 ft 102 kts 169°
2026-04-27 15:50 32.01188 35.02211 950 ft 105 kts 168°
2026-04-27 15:50 32.00470 35.02419 929 ft 106 kts 174°
2026-04-27 15:50 31.99746 35.02524 988 ft 105 kts 178°
2026-04-27 15:51 31.99032 35.02688 1052 ft 102 kts 171°
2026-04-27 15:51 31.98360 35.02868 1214 ft 97 kts 174°
2026-04-27 15:51 31.97705 35.03079 1272 ft 98 kts 175°
2026-04-27 15:51 31.97068 35.03182 1163 ft 99 kts 164°
2026-04-27 15:52 31.96379 35.03313 1177 ft 99 kts 182°
2026-04-27 15:52 31.95711 35.03319 1265 ft 98 kts 188°
2026-04-27 15:52 31.95021 35.03252 1308 ft 102 kts 191°
2026-04-27 15:52 31.94297 35.03154 1335 ft 108 kts 185°
2026-04-27 15:53 31.93560 35.03101 1280 ft 101 kts 187°
2026-04-27 15:53 31.92877 35.03100 1290 ft 98 kts 188°
2026-04-27 15:53 31.92182 35.03087 1306 ft 101 kts 188°
2026-04-27 15:53 31.91466 35.03062 1312 ft 105 kts 189°
2026-04-27 15:54 31.90739 35.02990 1345 ft 105 kts 193°
2026-04-27 15:54 31.90025 35.02867 1273 ft 107 kts 195°
2026-04-27 15:54 31.89311 35.02650 1243 ft 105 kts 207°
2026-04-27 15:54 31.88636 35.02343 1195 ft 105 kts 208°
2026-04-27 15:55 31.87938 35.02137 1226 ft 104 kts 194°
2026-04-27 15:55 31.87655 35.02097 1216 ft 106 kts 193°
2026-04-27 15:55 31.86712 35.02113 1372 ft 102 kts 171°
2026-04-27 15:55 31.86034 35.02364 1519 ft 102 kts 169°
2026-04-27 15:56 31.85360 35.02617 1686 ft 103 kts 169°
2026-04-27 15:56 31.84647 35.02664 1802 ft 103 kts 189°
2026-04-27 15:56 31.83924 35.02598 1838 ft 105 kts 192°
2026-04-27 15:56 31.83185 35.02465 1829 ft 108 kts 196°
2026-04-27 15:57 31.82448 35.02302 1779 ft 107 kts 200°
2026-04-27 15:57 31.81755 35.02114 1797 ft 101 kts 202°
2026-04-27 15:57 31.81056 35.01892 1773 ft 106 kts 202°
2026-04-27 15:57 31.80312 35.01690 1756 ft 112 kts 202°
2026-04-27 15:58 31.79573 35.01521 1749 ft 109 kts 194°
2026-04-27 15:58 31.78831 35.01434 1746 ft 106 kts 193°
2026-04-27 15:58 31.78150 35.01309 1701 ft 97 kts 205°
2026-04-27 15:58 31.77690 35.00858 1694 ft 84 kts 254°
2026-04-27 15:59 31.77464 35.00215 1649 ft 90 kts 251°
2026-04-27 15:59 31.77102 34.99530 1580 ft 103 kts 240°
2026-04-27 15:59 31.76704 34.98804 1510 ft 106 kts 249°
2026-04-27 15:59 31.76379 34.98020 1429 ft 108 kts 255°
2026-04-27 16:00 31.76344 34.97174 1388 ft 105 kts 281°
2026-04-27 16:00 31.76420 34.96623 1323 ft 103 kts 283°
2026-04-27 16:00 31.76645 34.95521 1209 ft 104 kts 287°
2026-04-27 16:00 31.76756 34.94644 1057 ft 110 kts 277°
2026-04-27 16:01 31.76826 34.93749 902 ft 109 kts 278°
2026-04-27 16:01 31.77015 34.92963 809 ft 95 kts 296°
2026-04-27 16:01 31.77344 34.92338 734 ft 87 kts 306°
2026-04-27 16:01 31.77727 34.91789 627 ft 80 kts 312°
2026-04-27 16:02 31.78026 34.91355 570 ft 64 kts 307°
2026-04-27 16:02 31.78268 34.90995 512 ft 51 kts 314°
2026-04-27 16:02 31.78498 34.90677 477 ft 52 kts 313°
2026-04-27 16:02 31.78739 34.90348 425 ft 55 kts 313°
2026-04-27 16:03 31.78960 34.90036 379 ft 39 kts 306°
2026-04-27 16:03 31.79046 34.89921 382 ft 13 kts 308°